When you browse on this site, cookies collect data to enhance your experience and personalize the content and advertising you see.
Visit our Privacy Policy to learn more. By continuing to use the site, you agree to this use of cookies and data.
  • In Hungary
  • List of Countries
  • For 7 days
  • Water Temperature
  • Weather Map
  • News
  • Weather Widgets
  • user-avatar
    Login

    Hourly Weather Arkovo-Bereg

    Today, 28 January, Tuesday

    Time Temperature Precipitation Wind Pressure Humidity
    00:00 -19°C° 0 mm 2 mps 768 mmHg 83%
    01:00 -18°C° 0 mm 2 mps 768 mmHg 83%
    02:00 -18°C° 0 mm 2 mps 767 mmHg 84%
    03:00 -17°C° 0 mm 2 mps 768 mmHg 85%
    04:00 -14°C° 0 mm 1 mps 768 mmHg 85%
    05:00 -14°C° 0 mm 1 mps 767 mmHg 86%
    06:00 -13°C° 0 mm 1 mps 767 mmHg 86%
    07:00 -12°C° 0 mm 1 mps 768 mmHg 86%
    08:00 -12°C° 0 mm 1 mps 768 mmHg 86%
    09:00 -10°C° 0 mm 1 mps 768 mmHg 87%
    10:00 -9°C° 0 mm 1 mps 768 mmHg 87%
    11:00 -9°C° 0 mm 1 mps 768 mmHg 87%
    12:00 -8°C° 0 mm 1 mps 768 mmHg 88%
    13:00 -8°C° 0 mm 1 mps 768 mmHg 89%
    14:00 -8°C° 0 mm 1 mps 768 mmHg 91%
    15:00 -9°C° 0 mm 1 mps 768 mmHg 94%
    16:00 -10°C° 0 mm 0 mps 768 mmHg 95%
    17:00 -12°C° 0 mm 0 mps 769 mmHg 96%
    18:00 -13°C° 0 mm 0 mps 769 mmHg 97%
    19:00 -14°C° 0 mm 0 mps 769 mmHg 97%
    20:00 -14°C° 0 mm 0 mps 769 mmHg 96%
    21:00 -15°C° 0 mm 0 mps 769 mmHg 96%
    22:00 -15°C° 0 mm 1 mps 769 mmHg 96%
    23:00 -15°C° 0 mm 1 mps 769 mmHg 96%

    Tomorrow, 29 January, Wednesday

    Time Temperature Precipitation Wind Pressure Humidity
    00:00 -15°C° 0 mm 1 mps 769 mmHg 95%
    01:00 -16°C° 0 mm 1 mps 769 mmHg 95%
    02:00 -16°C° 0 mm 1 mps 769 mmHg 95%
    03:00 -16°C° 0 mm 1 mps 769 mmHg 96%
    04:00 -18°C° 0 mm 2 mps 769 mmHg 96%
    05:00 -18°C° 0 mm 2 mps 769 mmHg 96%
    06:00 -18°C° 0 mm 2 mps 769 mmHg 96%
    07:00 -17°C° 0 mm 2 mps 769 mmHg 95%
    08:00 -16°C° 0 mm 2 mps 769 mmHg 94%
    09:00 -15°C° 0 mm 2 mps 769 mmHg 94%
    10:00 -14°C° 0 mm 2 mps 769 mmHg 92%
    11:00 -12°C° 0 mm 2 mps 769 mmHg 89%
    12:00 -10°C° 0 mm 2 mps 769 mmHg 87%
    13:00 -10°C° 0 mm 2 mps 768 mmHg 89%
    14:00 -10°C° 0 mm 2 mps 768 mmHg 90%
    15:00 -10°C° 0 mm 2 mps 768 mmHg 92%
    16:00 -12°C° 0 mm 2 mps 768 mmHg 93%
    17:00 -13°C° 0 mm 2 mps 768 mmHg 93%
    18:00 -14°C° 0 mm 2 mps 769 mmHg 94%
    19:00 -15°C° 0 mm 2 mps 769 mmHg 94%
    20:00 -16°C° 0 mm 2 mps 769 mmHg 94%
    21:00 -16°C° 0 mm 2 mps 769 mmHg 93%
    22:00 -17°C° 0 mm 2 mps 768 mmHg 93%
    23:00 -18°C° 0 mm 2 mps 768 mmHg 94%

    Day after tomorrow, 30 January, Thursday

    Time Temperature Precipitation Wind Pressure Humidity
    00:00 -18°C° 0 mm 2 mps 768 mmHg 94%
    01:00 -19°C° 0 mm 2 mps 768 mmHg 95%
    02:00 -19°C° 0 mm 2 mps 768 mmHg 95%
    03:00 -20°C° 0 mm 2 mps 768 mmHg 96%
    04:00 -20°C° 0 mm 2 mps 768 mmHg 96%
    05:00 -20°C° 0 mm 2 mps 768 mmHg 95%
    06:00 -21°C° 0 mm 2 mps 768 mmHg 95%
    07:00 -20°C° 0 mm 2 mps 768 mmHg 94%
    08:00 -19°C° 0 mm 2 mps 768 mmHg 93%
    09:00 -18°C° 0 mm 2 mps 768 mmHg 92%
    10:00 -18°C° 0 mm 3 mps 767 mmHg 90%
    11:00 -16°C° 0 mm 3 mps 767 mmHg 87%
    12:00 -14°C° 0 mm 3 mps 767 mmHg 85%
    13:00 -14°C° 0 mm 3 mps 766 mmHg 87%
    14:00 -14°C° 0 mm 3 mps 766 mmHg 89%
    15:00 -15°C° 0 mm 3 mps 765 mmHg 90%
    16:00 -17°C° 0 mm 3 mps 766 mmHg 91%
    17:00 -19°C° 0 mm 3 mps 766 mmHg 93%
    18:00 -20°C° 0 mm 2 mps 766 mmHg 94%
    19:00 -20°C° 0 mm 2 mps 766 mmHg 93%
    20:00 -21°C° 0 mm 2 mps 766 mmHg 91%
    21:00 -21°C° 0 mm 2 mps 766 mmHg 90%
    22:00 -21°C° 0 mm 2 mps 765 mmHg 90%
    23:00 -23°C° 0 mm 2 mps 765 mmHg 90%

    31 January, Friday

    Time Temperature Precipitation Wind Pressure Humidity
    00:00 -23°C° 0 mm 2 mps 765 mmHg 89%
    01:00 -23°C° 0 mm 2 mps 765 mmHg 89%
    02:00 -23°C° 0 mm 2 mps 765 mmHg 88%
    03:00 -23°C° 0 mm 2 mps 764 mmHg 88%
    04:00 -23°C° 0 mm 2 mps 764 mmHg 87%
    05:00 -23°C° 0 mm 2 mps 764 mmHg 86%
    06:00 -23°C° 0 mm 2 mps 765 mmHg 84%
    07:00 -21°C° 0 mm 2 mps 765 mmHg 84%
    08:00 -20°C° 0 mm 2 mps 764 mmHg 84%
    09:00 -19°C° 0 mm 2 mps 764 mmHg 84%
    10:00 -16°C° 0 mm 2 mps 764 mmHg 83%
    11:00 -14°C° 0 mm 2 mps 764 mmHg 81%
    12:00 -12°C° 0 mm 2 mps 764 mmHg 79%
    13:00 -12°C° 0 mm 2 mps 763 mmHg 82%
    14:00 -12°C° 0 mm 2 mps 763 mmHg 85%
    15:00 -12°C° 0 mm 2 mps 763 mmHg 88%
    16:00 -14°C° 0 mm 2 mps 763 mmHg 89%
    17:00 -16°C° 0 mm 2 mps 764 mmHg 89%
    18:00 -18°C° 0 mm 2 mps 764 mmHg 89%
    19:00 -19°C° 0 mm 2 mps 764 mmHg 88%
    20:00 -19°C° 0 mm 2 mps 764 mmHg 86%
    21:00 -20°C° 0 mm 2 mps 764 mmHg 84%
    22:00 -20°C° 0 mm 2 mps 764 mmHg 83%
    23:00 -18°C° 0 mm 1 mps 764 mmHg 81%

    1 February, Saturday

    Time Temperature Precipitation Wind Pressure Humidity
    00:00 -19°C° 0 mm 1 mps 764 mmHg 79%
    01:00 -19°C° 0 mm 1 mps 764 mmHg 78%
    02:00 -19°C° 0 mm 1 mps 764 mmHg 76%
    03:00 -19°C° 0 mm 1 mps 763 mmHg 75%
    04:00 -19°C° 0 mm 1 mps 763 mmHg 73%
    05:00 -19°C° 0 mm 1 mps 763 mmHg 72%
    06:00 -20°C° 0 mm 1 mps 763 mmHg 71%
    07:00 -18°C° 0 mm 1 mps 763 mmHg 72%
    08:00 -17°C° 0 mm 0 mps 763 mmHg 73%
    09:00 -15°C° 0 mm 0 mps 763 mmHg 74%
    10:00 -13°C° 0 mm 1 mps 763 mmHg 74%
    11:00 -11°C° 0 mm 1 mps 763 mmHg 74%
    12:00 -10°C° 0 mm 1 mps 762 mmHg 74%
    13:00 -10°C° 0 mm 1 mps 762 mmHg 79%
    14:00 -11°C° 0 mm 1 mps 762 mmHg 83%
    15:00 -11°C° 0 mm 0 mps 761 mmHg 88%
    16:00 -13°C° 0 mm 0 mps 761 mmHg 89%
    17:00 -15°C° 0 mm 0 mps 762 mmHg 90%
    18:00 -17°C° 0 mm 0 mps 762 mmHg 91%
    19:00 -18°C° 0 mm 0 mps 761 mmHg 90%
    20:00 -18°C° 0 mm 0 mps 761 mmHg 89%
    21:00 -18°C° 0 mm 0 mps 761 mmHg 89%
    22:00 -18°C° 0 mm 0 mps 761 mmHg 89%
    23:00 -19°C° 0 mm 0 mps 761 mmHg 90%

    2 February, Sunday

    Time Temperature Precipitation Wind Pressure Humidity
    00:00 -19°C° 0 mm 0 mps 761 mmHg 90%
    01:00 -19°C° 0 mm 1 mps 761 mmHg 90%
    02:00 -19°C° 0 mm 1 mps 760 mmHg 90%
    03:00 -20°C° 0 mm 1 mps 760 mmHg 90%
    04:00 -20°C° 0 mm 1 mps 760 mmHg 91%
    05:00 -20°C° 0 mm 1 mps 760 mmHg 91%
    06:00 -20°C° 0 mm 1 mps 760 mmHg 91%
    07:00 -19°C° 0 mm 1 mps 760 mmHg 90%
    08:00 -18°C° 0 mm 0 mps 760 mmHg 89%
    09:00 -16°C° 0 mm 0 mps 760 mmHg 88%
    10:00 -15°C° 0 mm 0 mps 760 mmHg 86%
    11:00 -14°C° 0 mm 1 mps 759 mmHg 83%
    12:00 -12°C° 0 mm 1 mps 759 mmHg 81%
    13:00 -13°C° 0 mm 1 mps 759 mmHg 83%
    14:00 -13°C° 0 mm 1 mps 758 mmHg 85%
    15:00 -13°C° 0 mm 0 mps 758 mmHg 87%
    16:00 -15°C° 0 mm 0 mps 759 mmHg 90%
    17:00 -16°C° 0 mm 0 mps 759 mmHg 92%
    18:00 -18°C° 0 mm 0 mps 759 mmHg 94%
    19:00 -18°C° 0 mm 1 mps 759 mmHg 95%
    20:00 -18°C° 0 mm 1 mps 759 mmHg 95%
    21:00 -17°C° 0 mm 1 mps 759 mmHg 95%
    22:00 -18°C° 0 mm 1 mps 759 mmHg 96%
    23:00 -18°C° 0 mm 1 mps 759 mmHg 96%
    Show more